When you browse on this site, cookies collect data to enhance your experience and personalize the content and advertising you see.
Visit our Privacy Policy to learn more. By continuing to use the site, you agree to this use of cookies and data.
  • In Spain
  • List of Countries
  • For 7 days
  • Water Temperature
  • Weather Map
  • Weather Widgets
  • user-avatar
    Login

    Hourly Weather Bhopal

    Today, 21 August, Wednesday

    Time Temperature Precipitation Wind Pressure Humidity
    00:00 +26°C° 0 mm 4 mps 711 mmHg 86%
    01:00 +26°C° 0 mm 4 mps 711 mmHg 87%
    02:00 +25°C° 0 mm 4 mps 710 mmHg 88%
    03:00 +25°C° 0 mm 4 mps 711 mmHg 88%
    04:00 +25°C° 0 mm 4 mps 711 mmHg 89%
    05:00 +25°C° 0 mm 4 mps 711 mmHg 90%
    06:00 +26°C° 0 mm 5 mps 711 mmHg 88%
    07:00 +27°C° 0 mm 5 mps 711 mmHg 86%
    08:00 +28°C° 0 mm 5 mps 711 mmHg 84%
    09:00 +29°C° 0.4 mm 5 mps 711 mmHg 79%
    10:00 +30°C° 0.4 mm 5 mps 712 mmHg 73%
    11:00 +33°C° 0.4 mm 5 mps 712 mmHg 67%
    12:00 +33°C° 0.2 mm 5 mps 711 mmHg 66%
    13:00 +33°C° 0.2 mm 5 mps 711 mmHg 66%
    14:00 +33°C° 0.2 mm 5 mps 710 mmHg 66%
    15:00 +32°C° 0.4 mm 4 mps 710 mmHg 70%
    16:00 +32°C° 0.4 mm 4 mps 710 mmHg 73%
    17:00 +30°C° 0.4 mm 3 mps 709 mmHg 77%
    18:00 +29°C° 0.4 mm 3 mps 710 mmHg 79%
    19:00 +28°C° 0.4 mm 3 mps 710 mmHg 80%
    20:00 +27°C° 0.4 mm 3 mps 710 mmHg 81%
    21:00 +27°C° 0 mm 3 mps 710 mmHg 82%
    22:00 +27°C° 0 mm 3 mps 710 mmHg 83%
    23:00 +26°C° 0 mm 3 mps 710 mmHg 85%

    Tomorrow, 22 August, Thursday

    Time Temperature Precipitation Wind Pressure Humidity
    00:00 +26°C° 0.1 mm 4 mps 710 mmHg 86%
    01:00 +26°C° 0.1 mm 4 mps 709 mmHg 87%
    02:00 +26°C° 0.1 mm 4 mps 709 mmHg 89%
    03:00 +26°C° 0.3 mm 4 mps 709 mmHg 89%
    04:00 +26°C° 0.3 mm 4 mps 709 mmHg 89%
    05:00 +26°C° 0.3 mm 4 mps 709 mmHg 90%
    06:00 +26°C° 0 mm 5 mps 710 mmHg 88%
    07:00 +27°C° 0 mm 5 mps 710 mmHg 87%
    08:00 +27°C° 0 mm 6 mps 711 mmHg 86%
    09:00 +28°C° 0.9 mm 6 mps 711 mmHg 82%
    10:00 +30°C° 0.9 mm 6 mps 711 mmHg 78%
    11:00 +32°C° 0.9 mm 6 mps 711 mmHg 73%
    12:00 +32°C° 1.5 mm 6 mps 710 mmHg 71%
    13:00 +32°C° 1.5 mm 6 mps 710 mmHg 70%
    14:00 +33°C° 1.5 mm 6 mps 710 mmHg 68%
    15:00 +32°C° 0.9 mm 5 mps 709 mmHg 71%
    16:00 +30°C° 0.9 mm 5 mps 709 mmHg 74%
    17:00 +30°C° 0.9 mm 4 mps 709 mmHg 77%
    18:00 +29°C° 0.1 mm 4 mps 709 mmHg 79%
    19:00 +28°C° 0.1 mm 3 mps 709 mmHg 81%
    20:00 +27°C° 0.1 mm 3 mps 710 mmHg 83%
    21:00 +27°C° 0 mm 3 mps 710 mmHg 84%
    22:00 +27°C° 0 mm 3 mps 710 mmHg 85%
    23:00 +26°C° 0 mm 4 mps 710 mmHg 87%

    Day after tomorrow, 23 August, Friday

    Time Temperature Precipitation Wind Pressure Humidity
    00:00 +26°C° 0.5 mm 4 mps 710 mmHg 88%
    01:00 +26°C° 0.5 mm 4 mps 709 mmHg 89%
    02:00 +25°C° 0.5 mm 5 mps 709 mmHg 91%
    03:00 +25°C° 0.6 mm 5 mps 709 mmHg 91%
    04:00 +25°C° 0.6 mm 5 mps 709 mmHg 91%
    05:00 +25°C° 0.6 mm 5 mps 709 mmHg 91%
    06:00 +25°C° 0 mm 5 mps 710 mmHg 89%
    07:00 +26°C° 0 mm 5 mps 710 mmHg 87%
    08:00 +27°C° 0 mm 6 mps 711 mmHg 86%
    09:00 +27°C° 0.4 mm 5 mps 711 mmHg 84%
    10:00 +28°C° 0.4 mm 5 mps 711 mmHg 83%
    11:00 +29°C° 0.4 mm 5 mps 711 mmHg 81%
    12:00 +29°C° 1.2 mm 5 mps 711 mmHg 80%
    13:00 +30°C° 1.2 mm 5 mps 710 mmHg 80%
    14:00 +30°C° 1.2 mm 5 mps 710 mmHg 79%
    15:00 +29°C° 1.6 mm 5 mps 709 mmHg 80%
    16:00 +29°C° 1.6 mm 4 mps 709 mmHg 81%
    17:00 +28°C° 1.6 mm 4 mps 709 mmHg 82%
    18:00 +28°C° 0.8 mm 4 mps 709 mmHg 83%
    19:00 +27°C° 0.8 mm 3 mps 710 mmHg 84%
    20:00 +27°C° 0.8 mm 3 mps 710 mmHg 85%
    21:00 +27°C° 0.4 mm 3 mps 710 mmHg 85%
    22:00 +27°C° 0.4 mm 4 mps 710 mmHg 86%
    23:00 +26°C° 0.4 mm 4 mps 711 mmHg 86%

    24 August, Saturday

    Time Temperature Precipitation Wind Pressure Humidity
    00:00 +26°C° 1.1 mm 4 mps 710 mmHg 87%
    01:00 +26°C° 1.1 mm 4 mps 710 mmHg 88%
    02:00 +26°C° 1.1 mm 4 mps 710 mmHg 89%
    03:00 +25°C° 1.8 mm 5 mps 710 mmHg 91%
    04:00 +25°C° 1.8 mm 5 mps 710 mmHg 92%
    05:00 +25°C° 1.8 mm 5 mps 710 mmHg 94%
    06:00 +25°C° 1.3 mm 5 mps 710 mmHg 94%
    07:00 +25°C° 1.3 mm 5 mps 711 mmHg 93%
    08:00 +25°C° 1.3 mm 5 mps 711 mmHg 93%
    09:00 +25°C° 0.2 mm 5 mps 711 mmHg 91%
    10:00 +26°C° 0.2 mm 5 mps 711 mmHg 88%
    11:00 +27°C° 0.2 mm 5 mps 712 mmHg 86%
    12:00 +28°C° 0.1 mm 5 mps 711 mmHg 84%
    13:00 +28°C° 0.1 mm 6 mps 711 mmHg 82%
    14:00 +29°C° 0.1 mm 6 mps 710 mmHg 80%
    15:00 +29°C° 0.6 mm 5 mps 710 mmHg 81%
    16:00 +28°C° 0.6 mm 5 mps 709 mmHg 82%
    17:00 +28°C° 0.6 mm 4 mps 709 mmHg 82%
    18:00 +27°C° 0.7 mm 4 mps 709 mmHg 85%
    19:00 +26°C° 0.7 mm 4 mps 710 mmHg 87%
    20:00 +26°C° 0.7 mm 4 mps 710 mmHg 90%
    21:00 +25°C° 0.9 mm 4 mps 710 mmHg 90%
    22:00 +25°C° 0.9 mm 4 mps 710 mmHg 90%
    23:00 +25°C° 0.9 mm 4 mps 710 mmHg 91%

    25 August, Sunday

    Time Temperature Precipitation Wind Pressure Humidity
    00:00 +25°C° 2.1 mm 4 mps 710 mmHg 92%
    01:00 +25°C° 2.1 mm 4 mps 709 mmHg 94%
    02:00 +23°C° 2.1 mm 4 mps 709 mmHg 95%
    03:00 +24°C° 4 mm 3 mps 709 mmHg 96%
    04:00 +24°C° 4 mm 3 mps 709 mmHg 97%
    05:00 +24°C° 4 mm 3 mps 709 mmHg 97%
    06:00 +23°C° 6.1 mm 4 mps 709 mmHg 97%
    07:00 +23°C° 6.1 mm 4 mps 710 mmHg 96%
    08:00 +23°C° 6.1 mm 5 mps 710 mmHg 96%
    09:00 +23°C° 1.1 mm 5 mps 710 mmHg 95%
    10:00 +23°C° 1.1 mm 5 mps 710 mmHg 95%
    11:00 +25°C° 1.1 mm 5 mps 710 mmHg 94%
    12:00 +25°C° 0.4 mm 5 mps 710 mmHg 94%
    13:00 +25°C° 0.4 mm 5 mps 709 mmHg 93%
    14:00 +25°C° 0.4 mm 5 mps 709 mmHg 93%
    15:00 +25°C° 0.1 mm 4 mps 709 mmHg 93%
    16:00 +25°C° 0.1 mm 4 mps 709 mmHg 93%
    17:00 +25°C° 0.1 mm 4 mps 708 mmHg 93%
    18:00 +25°C° 0.2 mm 4 mps 709 mmHg 94%
    19:00 +25°C° 0.2 mm 4 mps 709 mmHg 94%
    20:00 +25°C° 0.2 mm 4 mps 709 mmHg 95%
    21:00 +24°C° 0.9 mm 3 mps 709 mmHg 96%
    22:00 +24°C° 0.9 mm 3 mps 709 mmHg 96%
    23:00 +24°C° 0.9 mm 3 mps 709 mmHg 97%

    26 August, Monday

    Time Temperature Precipitation Wind Pressure Humidity
    00:00 +24°C° 3.9 mm 3 mps 709 mmHg 97%
    01:00 +23°C° 3.9 mm 4 mps 709 mmHg 97%
    02:00 +23°C° 3.9 mm 4 mps 708 mmHg 97%
    03:00 +23°C° 0.9 mm 4 mps 708 mmHg 97%
    04:00 +23°C° 0.9 mm 4 mps 708 mmHg 96%
    05:00 +23°C° 0.9 mm 4 mps 708 mmHg 96%
    06:00 +25°C° 0.5 mm 4 mps 709 mmHg 96%
    07:00 +25°C° 0.5 mm 4 mps 709 mmHg 95%
    08:00 +25°C° 0.5 mm 4 mps 710 mmHg 95%
    09:00 +25°C° 0.6 mm 4 mps 710 mmHg 93%
    10:00 +26°C° 0.6 mm 4 mps 710 mmHg 92%
    11:00 +26°C° 0.6 mm 4 mps 710 mmHg 91%
    12:00 +27°C° 0.9 mm 4 mps 709 mmHg 90%
    13:00 +27°C° 0.9 mm 5 mps 709 mmHg 90%
    14:00 +27°C° 0.9 mm 5 mps 708 mmHg 89%
    15:00 +27°C° 0.8 mm 5 mps 708 mmHg 89%
    16:00 +27°C° 0.8 mm 5 mps 708 mmHg 90%
    17:00 +26°C° 0.8 mm 5 mps 708 mmHg 90%
    18:00 +26°C° 0.2 mm 5 mps 708 mmHg 91%
    19:00 +24°C° 0.2 mm 6 mps 708 mmHg 92%
    20:00 +24°C° 0.2 mm 6 mps 709 mmHg 93%
    21:00 +23°C° 0 mm 6 mps 709 mmHg 93%
    22:00 +23°C° 0 mm 5 mps 709 mmHg 93%
    23:00 +23°C° 0 mm 5 mps 709 mmHg 93%
    Show more